Portada
METAR-TAF:

METAR-TAF

Aeroports :

Merimbula, Austràlia

latitud: 36-54-31S, longitud: 149-54-05E, altitud: 2 m

Observació

L'informe es va fer fa 1 hora i 13 minuts, a les 16:00 UTC
Vent calma
Temperatura 17°C
Humitat 88%
Pressió 1026 hPa
Visibilitat 10 km o més
Cel ennuvolat a una alçada de 5200 ft

METAR: YMER 191600Z AUTO 00000KT 9999 // BKN052 17/15 Q1026

Hora: 03:13 (17:13 UTC)


TAF: manca

Observacions i pronòstics meteorològics de més de 4000 aeroports (METAR i TAF).

Les estacions disponibles són els punts grocs i vermells al mapa.

Posi el ratolí al punt desitjat per veure el nom de l'estació.

Feu clic per veure les observacions i els pronòstics meteorològics.

Per canviar el mapa: feu clic els botons verds amb una creu de color negre per apropar; al botó verd amb un guió per allunyar la imatge; o en les fletxes verdes per a mapes adjacents.


METAR-TAF: